Theta_e
335 338 339 346 346 347 347 347 348 348 347 345 346 346 346 346 347 347 348 349 349 349 349 349 348 347 346 346 346 345 344 344 344 343 343 343 344 344 345 346 346 346 346 346 345 345 344 343 342 342 340 340 341 340 340 340 340 339 339 340 339 336 336 337 336 336 337 338 337 337 339 339 340 340 339 339 337 333 334 335 334 331 330 333 335
334 336 337 343 347 347 348 347 348 347 346 345 345 345 345 345 345 345 349 348 348 347 347 347 346 346 345 344 344 344 343 343 342 342 343 343 343 344 344 344 344 344 344 344 343 343 344 344 343 340 341 341 341 340 340 340 340 340 340 339 338 335 335 334 333 334 335 335 337 337 337 338 338 337 337 336 334 331 334 337 336 331 328 334 335
335 336 340 345 347 347 348 347 347 346 346 345 344 343 343 343 343 344 344 347 346 346 346 346 345 344 343 343 342 343 343 342 343 345 344 344 343 343 343 343 344 345 344 344 343 343 342 340 340 340 340 341 340 340 340 341 340 340 339 338 336 335 334 334 333 333 334 334 334 333 333 336 333 334 334 336 334 333 336 336 335 333 328 336 335
335 338 342 345 346 347 347 347 346 346 345 344 344 344 342 342 342 342 342 342 342 345 345 345 344 343 342 342 341 341 342 342 342 342 342 341 340 339 339 340 341 341 341 340 339 340 340 341 340 341 340 339 339 340 340 339 339 339 339 337 336 335 334 333 334 334 334 333 333 330 328 324 331 333 334 336 335 333 334 333 332 333 333 334 334
337 340 342 343 344 346 347 347 346 345 345 344 343 343 342 341 341 341 341 341 342 341 343 344 344 343 342 340 343 345 345 346 346 346 343 342 342 343 344 343 343 342 341 341 341 341 340 339 339 339 340 339 339 339 339 340 340 340 338 338 337 334 334 333 334 334 333 333 332 329 323 325 327 334 334 333 334 333 333 332 331 331 331 331 332
338 340 341 342 342 344 347 347 346 345 343 342 341 340 340 339 340 341 341 341 341 341 341 342 342 342 341 340 344 346 347 347 346 346 345 341 339 339 339 339 340 341 342 341 341 338 339 339 340 339 338 338 338 339 339 339 339 338 337 336 335 335 334 334 334 333 332 331 329 323 322 323 325 328 334 334 334 333 332 331 332 331 332 332 331
339 340 341 341 342 343 346 347 346 344 343 342 341 341 341 341 341 341 339 340 340 340 340 340 341 341 341 340 342 346 347 347 347 345 345 342 341 341 341 340 341 340 341 341 340 340 338 339 339 339 338 338 338 339 339 338 338 338 335 335 335 334 334 334 333 332 330 325 320 320 321 323 325 327 333 333 332 333 332 332 333 331 332 332 332
338 340 340 340 341 344 345 347 345 344 343 342 341 341 341 341 341 341 342 341 341 341 341 340 340 341 342 342 341 347 347 346 345 344 344 344 344 343 342 342 342 338 338 339 340 340 339 338 339 338 338 338 338 339 338 337 337 337 336 335 334 334 334 334 333 332 330 324 323 323 322 322 324 327 333 333 333 332 331 334 333 331 332 333 332
337 339 340 340 341 343 344 345 344 343 342 341 341 341 341 340 341 341 341 341 341 340 340 341 341 341 341 341 341 344 344 344 344 344 344 344 343 341 339 338 339 338 338 338 339 338 337 337 338 338 338 338 338 338 338 337 337 337 336 335 335 335 334 332 331 329 326 325 325 327 330 327 324 326 334 334 333 332 331 331 332 332 332 333 330
337 338 339 339 340 341 343 344 343 342 341 341 341 340 339 340 340 340 340 341 340 338 338 339 339 340 340 340 342 345 345 345 345 345 343 343 342 341 341 341 340 339 340 339 338 340 339 338 337 337 337 337 337 337 337 337 337 337 336 336 335 335 334 333 331 330 324 324 324 326 332 337 329 326 332 335 334 332 334 332 333 333 333 334 331
337 338 338 339 339 341 345 346 344 343 343 342 340 339 339 340 339 339 338 337 336 338 341 341 341 341 341 340 340 344 344 344 344 343 342 342 341 340 339 339 337 336 337 337 338 338 338 338 338 337 337 337 337 336 336 336 336 336 337 336 334 333 332 330 328 323 323 323 324 326 331 335 331 329 334 335 334 331 335 335 334 331 330 330 330
338 338 338 339 344 340 344 344 344 343 343 342 340 339 339 339 339 339 339 339 339 341 342 341 341 341 341 341 340 341 342 342 342 343 342 342 341 340 338 339 339 339 338 337 337 337 339 338 337 337 336 336 335 336 335 335 336 336 336 336 335 333 331 329 322 321 320 320 322 326 327 329 330 335 335 334 334 333 334 332 331 331 332 332 331
338 339 338 339 340 340 343 344 343 344 343 341 340 339 338 338 340 339 338 339 341 341 341 341 341 340 340 341 341 341 342 343 343 343 342 341 340 339 339 338 338 338 338 338 337 337 338 337 337 336 336 335 335 335 335 335 335 335 335 335 335 333 330 327 320 320 319 319 320 321 325 329 331 337 337 335 334 333 333 334 334 334 334 334 332
338 339 338 339 338 344 339 340 341 343 344 342 340 339 338 341 340 339 338 340 341 342 341 340 339 339 339 339 340 342 343 343 343 342 342 341 340 339 339 338 337 336 337 337 337 337 338 337 336 336 335 334 334 334 334 334 334 334 334 334 334 332 328 325 325 319 319 318 321 321 322 328 331 336 336 335 334 334 332 332 333 334 336 335 335
338 338 337 338 341 342 341 339 341 340 342 342 342 341 338 339 340 339 338 340 340 339 339 339 338 338 338 339 340 342 342 342 341 341 340 339 339 339 339 339 339 338 337 336 336 337 337 337 336 335 334 333 333 333 333 333 333 333 333 334 332 330 326 320 319 317 319 320 318 319 319 323 335 336 336 336 335 334 332 335 336 335 336 335 335
339 338 337 338 340 341 340 341 336 337 339 339 339 340 340 340 341 338 338 340 339 338 338 337 337 337 337 339 341 341 341 341 339 339 340 339 339 338 338 337 336 336 337 336 336 337 336 336 335 334 333 332 332 332 332 332 332 332 333 333 331 329 325 322 317 315 315 315 316 318 319 322 335 335 336 336 336 335 333 334 335 335 335 336 335
338 337 338 338 339 339 339 338 334 333 334 335 337 339 341 342 341 340 340 340 339 337 337 336 337 337 338 339 340 340 340 341 339 339 339 337 337 337 337 337 336 336 336 336 336 336 335 334 334 333 332 332 331 331 331 331 332 333 333 331 329 327 324 322 318 316 316 318 318 318 318 322 334 334 335 336 336 335 334 334 335 335 335 335 334
338 339 338 339 338 337 336 335 334 333 332 334 334 337 339 341 340 340 340 339 339 339 339 340 340 340 340 339 339 339 339 340 340 340 339 338 337 336 337 337 337 337 336 336 336 335 334 333 333 333 332 332 331 331 330 331 332 332 331 329 328 326 323 323 317 315 317 321 316 320 319 332 334 334 333 334 335 334 333 333 334 334 334 335 335
338 339 340 338 336 336 335 334 333 331 331 333 334 335 335 337 338 338 339 341 341 340 340 339 339 339 338 336 335 334 334 335 336 336 336 336 335 333 335 337 336 335 335 335 335 334 333 333 333 332 331 331 331 331 331 331 332 331 330 328 325 322 320 319 315 314 315 315 316 317 320 332 333 334 333 334 335 334 334 335 334 335 335 335 335
338 338 339 337 335 334 333 331 331 330 329 330 332 332 332 332 334 336 337 338 338 337 336 334 333 332 331 331 329 328 327 327 328 329 332 335 333 329 332 335 335 335 334 334 333 332 332 333 332 332 331 331 332 331 330 331 332 331 329 327 323 319 316 315 314 315 315 317 318 316 328 332 333 334 333 335 335 334 334 334 334 335 334 335 334
336 338 338 337 334 333 331 330 328 329 328 329 331 333 331 330 331 331 332 333 334 334 332 328 325 325 325 324 325 324 324 324 325 324 324 325 324 326 331 335 334 334 333 333 332 332 331 332 332 332 331 330 330 329 327 327 328 328 327 324 319 317 316 314 318 319 317 316 317 318 331 332 333 334 334 334 335 334 334 334 334 334 334 335 334
334 335 337 336 334 332 332 331 328 327 328 329 332 333 332 331 330 328 329 330 329 327 326 326 329 323 322 323 324 324 323 324 325 327 325 325 324 325 329 333 335 334 333 333 332 332 331 331 331 331 330 332 326 315 315 319 322 324 322 319 317 317 318 315 317 318 318 316 317 322 331 331 332 334 332 333 334 333 333 333 333 334 335 334 334
331 334 335 336 335 333 332 331 329 328 327 327 331 332 332 332 331 330 327 326 328 326 325 326 322 322 321 321 321 323 322 324 324 325 325 322 324 324 328 331 332 332 334 332 332 331 332 331 331 330 331 326 319 316 315 314 315 319 318 317 315 314 317 320 318 317 316 316 314 327 331 331 332 333 332 333 333 333 332 333 333 334 334 334 334
329 333 334 336 335 333 331 331 329 328 327 327 329 331 332 332 331 330 326 325 325 325 324 324 322 321 320 320 320 319 321 324 325 326 324 323 322 321 323 325 327 327 328 327 328 328 330 330 329 327 321 317 316 314 313 313 315 314 313 314 314 314 316 319 321 320 319 320 318 326 330 331 332 331 331 332 333 332 332 332 333 334 333 333 332
324 329 332 334 334 333 332 331 330 329 327 326 328 329 330 331 331 329 326 324 323 323 324 323 322 321 320 321 319 321 324 325 324 322 321 322 321 321 322 322 323 323 322 323 321 319 320 315 314 314 315 314 312 314 313 314 313 315 316 318 319 318 315 318 322 320 319 319 320 324 328 330 330 330 331 332 332 331 331 333 333 333 331 331 331
320 324 329 330 331 333 331 331 331 330 328 327 327 327 329 328 328 327 326 324 324 323 323 323 321 321 320 321 320 322 323 324 323 322 321 321 321 321 320 321 321 320 320 320 318 318 317 314 314 314 314 311 313 313 311 314 316 318 321 321 320 318 315 316 318 316 319 317 317 324 327 330 329 330 331 332 332 331 331 333 333 331 330 329 329
320 322 325 326 329 330 329 329 331 330 329 328 327 327 327 327 326 325 326 325 324 324 323 322 322 321 321 321 321 321 322 323 321 320 320 320 321 320 320 321 321 320 320 319 318 319 317 315 314 317 314 312 313 312 313 313 314 317 317 317 318 320 317 318 319 319 316 315 317 323 327 329 330 329 330 331 331 331 331 332 332 328 327 327 328
320 321 322 323 323 327 326 327 328 329 329 328 327 326 327 326 325 324 325 324 324 324 324 323 322 322 321 321 321 322 321 320 320 319 319 318 320 320 320 320 320 319 320 317 317 317 316 315 314 314 316 314 313 312 313 314 316 316 316 316 316 319 320 319 320 319 315 313 315 319 323 327 328 328 328 329 330 330 330 331 330 327 327 328 326
320 321 322 322 322 324 324 325 326 328 329 329 326 326 326 325 324 324 324 323 324 324 324 323 323 322 322 321 321 321 320 320 318 319 317 319 318 319 319 319 318 318 318 316 315 317 315 315 315 315 313 314 310 312 313 316 318 318 317 315 315 320 320 317 319 318 317 315 313 316 321 323 325 325 327 328 327 327 328 330 328 327 328 327 325
321 322 322 323 323 324 323 324 324 327 328 327 325 324 325 324 324 324 325 321 323 324 323 322 323 322 322 321 321 322 321 320 319 318 318 319 319 318 317 317 318 318 316 316 315 315 315 313 312 311 313 312 313 317 315 317 317 315 313 313 315 319 318 316 320 319 316 312 310 313 318 319 324 324 325 325 325 325 326 328 327 326 327 327 326
322 322 323 324 323 323 323 324 323 323 325 325 324 323 323 323 323 324 324 322 324 324 322 322 322 322 323 321 321 321 321 320 320 320 319 320 319 319 318 318 318 318 317 318 315 315 315 315 316 314 314 314 316 316 317 319 316 315 314 314 317 318 317 318 318 316 313 311 311 311 312 317 320 324 324 324 325 325 326 327 327 327 327 326 325
321 321 323 324 323 323 324 324 324 323 323 324 322 322 322 322 322 323 323 323 323 324 323 322 321 323 322 322 322 321 320 321 321 321 321 320 319 318 319 317 318 317 317 318 316 315 315 315 315 315 315 317 317 317 317 316 316 315 313 315 318 319 318 319 317 315 313 311 310 309 311 312 316 319 322 324 324 324 325 325 326 325 325 326 326
321 322 323 323 323 323 323 323 324 323 323 323 322 322 321 322 321 322 323 323 322 322 322 321 322 323 323 322 322 322 319 320 321 321 320 321 320 319 319 319 319 319 317 318 317 316 313 315 316 313 314 313 314 317 313 313 312 316 314 315 317 319 318 318 316 314 313 311 310 309 308 307 308 314 316 318 323 326 324 324 324 324 324 325 326
320 320 321 321 323 324 324 324 324 323 323 324 322 321 321 321 321 322 322 322 322 322 322 321 321 322 322 322 322 322 321 320 320 321 321 321 320 319 320 319 319 318 318 318 317 316 316 315 317 314 317 316 316 317 314 316 314 313 313 314 315 318 317 317 315 316 315 313 310 308 307 305 305 306 306 313 316 323 324 323 322 323 323 323 324
320 319 320 321 322 324 325 325 323 323 322 323 322 322 321 321 321 321 322 322 322 322 322 321 320 322 322 323 323 322 321 321 320 321 320 320 320 319 319 320 319 319 318 318 319 318 318 318 316 316 316 313 314 316 312 315 314 315 315 312 315 311 312 316 316 316 315 313 310 308 306 304 303 304 305 304 309 314 321 321 321 321 322 322 322
322 320 320 320 321 323 324 324 323 323 323 323 322 323 322 322 322 321 322 321 322 322 322 322 322 321 321 322 322 323 322 321 320 320 320 320 321 320 321 320 320 319 320 319 319 319 318 318 317 317 315 315 313 315 313 314 313 313 313 312 313 312 313 314 315 315 315 313 311 308 306 303 303 304 305 304 305 309 314 319 318 318 319 320 322
324 322 320 319 320 322 322 324 322 323 323 323 322 322 322 322 322 322 323 322 322 322 322 323 323 322 321 322 322 322 322 322 321 320 320 321 321 321 322 321 320 320 319 319 319 319 318 318 317 316 317 316 313 314 313 311 312 313 314 312 313 313 313 316 316 315 313 312 310 309 306 303 302 306 304 303 303 303 308 311 312 312 313 315 318
325 324 322 320 320 321 322 323 323 323 323 323 322 323 323 322 322 322 321 323 323 323 323 323 323 323 322 322 322 322 322 322 322 321 322 322 322 322 322 322 321 320 319 319 319 319 318 318 318 315 316 316 314 313 313 311 311 311 309 310 311 310 313 315 314 311 313 311 310 308 306 304 302 303 303 303 301 302 302 306 308 308 308 310 312
326 324 323 321 321 321 321 321 322 323 323 323 322 322 322 322 321 321 321 322 323 323 323 322 322 323 323 323 322 323 322 323 322 321 321 322 322 322 321 321 320 320 319 319 318 318 318 317 317 317 313 316 316 314 313 312 311 309 309 311 309 310 312 311 312 313 313 313 310 308 305 303 302 301 303 301 301 301 298 296 295 295 300 305 306
326 325 323 322 321 321 321 321 321 322 323 322 321 321 321 320 320 319 320 320 322 322 322 322 322 322 323 323 323 323 323 323 323 323 322 322 322 322 322 321 320 320 319 318 318 318 318 316 315 316 314 312 311 312 308 310 308 309 308 311 307 308 310 311 312 313 312 310 307 304 304 303 301 300 300 300 301 299 298 296 295 294 296 302 302
325 325 324 323 322 321 320 319 320 321 322 321 320 320 320 319 320 321 321 321 321 322 322 323 323 323 323 323 323 323 324 323 323 323 322 321 322 323 322 321 320 319 319 319 320 319 319 319 317 315 315 313 312 310 310 311 310 310 307 307 309 305 309 309 311 311 310 307 304 302 301 301 300 299 300 300 300 299 298 297 295 293 293 293 297
323 324 324 324 324 322 321 321 321 321 322 322 321 321 322 322 321 321 322 322 321 320 322 322 323 323 322 323 323 323 323 323 322 323 323 322 322 322 322 323 321 320 320 320 319 317 318 317 316 312 312 314 313 311 311 313 307 306 305 304 304 306 307 308 309 310 308 304 302 301 300 301 300 300 300 300 299 299 298 297 295 292 289 290 290
324 324 325 324 324 323 323 322 322 321 321 322 322 321 322 323 323 322 322 321 322 322 323 322 322 322 323 323 323 323 324 324 323 321 322 322 322 322 323 323 322 321 319 319 319 318 318 318 316 317 313 308 311 310 313 315 309 303 301 304 301 303 306 308 309 311 306 302 300 300 299 300 300 300 299 299 299 299 299 297 295 292 289 289 290
323 323 324 324 325 324 324 323 322 322 322 322 320 322 322 323 323 321 321 322 321 320 321 319 320 321 322 323 322 323 323 324 323 322 322 322 322 322 322 322 323 321 321 320 319 319 319 318 317 317 317 313 309 312 312 314 311 309 306 306 300 298 300 305 308 310 304 302 300 299 299 300 299 297 298 299 299 298 299 297 295 292 289 289 289
323 323 324 324 326 325 325 325 324 323 323 321 321 322 321 318 319 317 318 318 319 318 320 321 321 321 321 322 323 322 322 323 324 324 322 322 322 321 321 322 322 322 321 321 321 321 320 320 319 317 317 317 313 309 310 312 312 315 309 303 300 299 300 299 305 307 302 300 298 298 298 298 298 297 297 297 297 298 298 297 294 292 290 289 289
322 324 325 325 325 326 325 325 325 324 324 323 322 322 321 321 320 319 318 319 319 320 320 321 321 321 321 323 322 323 323 323 324 324 323 321 322 321 321 321 321 322 322 322 322 321 320 319 319 319 317 317 316 310 309 308 312 313 312 310 307 303 300 298 304 302 302 302 298 298 298 298 297 297 296 296 296 297 297 297 295 293 291 289 289
323 324 324 325 325 326 326 326 326 325 325 325 323 322 322 322 321 321 320 320 319 320 322 323 323 323 323 322 323 323 324 324 323 324 324 323 323 323 322 321 321 321 321 321 322 321 321 320 320 318 319 317 315 313 313 314 311 313 312 312 308 302 301 304 302 297 299 302 300 299 299 296 295 295 295 295 295 296 296 296 295 293 291 289 288
323 323 323 324 324 324 325 325 326 324 326 326 324 323 323 323 322 322 321 321 321 321 322 323 322 321 322 323 323 323 323 325 325 324 325 324 323 323 323 322 322 322 321 321 321 322 321 320 319 320 320 319 318 317 316 314 315 314 313 313 311 307 303 300 299 303 298 297 298 299 296 294 294 293 294 294 294 295 296 295 295 292 289 288 288
321 321 322 323 324 324 324 324 325 324 324 325 325 324 324 324 324 323 322 322 323 323 318 317 319 318 321 321 322 323 323 324 325 325 325 326 323 323 324 323 323 322 320 322 322 322 322 322 320 319 320 319 319 319 318 316 317 316 312 313 315 314 310 309 305 301 297 295 295 294 295 292 292 292 293 293 294 295 296 296 295 291 289 288 287
321 321 321 322 322 323 322 322 324 325 324 324 324 325 324 323 324 323 322 323 321 321 317 320 318 318 320 321 321 322 323 323 323 324 325 326 326 324 325 326 325 325 321 323 323 323 323 323 323 322 322 321 320 319 319 319 317 318 316 316 313 312 311 309 306 303 301 301 298 294 294 292 291 292 293 293 293 293 295 296 295 291 289 288 287
316 316 318 319 320 321 322 321 323 324 323 323 323 324 324 324 324 324 323 322 322 321 320 320 319 318 320 320 321 321 321 322 322 323 323 325 326 324 325 326 327 326 324 324 324 324 324 324 324 323 322 322 321 320 318 318 318 317 316 315 314 314 312 311 310 306 307 298 296 295 296 293 294 293 293 293 292 292 294 296 295 291 289 288 287
Wind_Speed
3 4 2 6 7 10 10 10 10 11 12 11 11 11 12 12 11 14 16 17 16 17 18 17 17 17 16 15 16 16 16 15 15 15 15 16 16 17 17 18 17 18 18 19 19 18 18 18 17 15 15 16 17 18 17 17 16 14 15 16 17 18 17 17 17 17 17 18 19 18 18 18 18 18 19 19 19 16 13 15 12 10 8 14 18
6 3 3 3 8 10 11 10 11 11 12 12 12 12 13 12 11 11 12 14 14 15 15 15 15 15 14 13 14 15 15 15 15 16 16 16 16 17 16 17 17 18 17 18 18 18 18 16 15 14 15 17 17 16 16 16 16 16 15 16 17 18 17 17 16 16 16 15 16 16 18 19 19 18 17 18 18 15 14 18 18 9 5 17 17
5 3 3 5 10 11 11 12 12 12 12 12 12 13 12 12 11 11 10 13 12 13 14 15 14 13 14 14 13 14 15 15 16 17 17 17 17 17 17 17 17 18 19 18 18 18 16 15 15 14 16 16 15 15 15 16 17 17 18 19 18 17 17 17 16 15 14 15 14 13 12 18 18 16 17 18 17 17 16 18 18 15 9 19 16
6 3 4 7 10 10 12 12 13 13 11 11 13 12 11 11 13 12 11 11 12 13 13 13 14 13 14 15 13 14 15 15 15 16 16 16 16 15 14 16 16 16 17 17 17 16 16 15 15 15 15 15 14 15 16 16 17 18 18 19 18 17 17 17 15 14 13 12 12 9 5 4 9 17 17 17 17 16 14 17 16 15 16 17 19
6 5 5 5 6 9 11 12 14 12 12 11 11 11 12 11 12 12 12 12 12 11 12 12 13 14 14 13 13 14 15 16 17 17 17 17 17 17 17 17 17 17 17 17 16 16 16 15 16 16 15 14 15 15 16 16 17 17 17 17 17 17 17 16 14 12 11 11 11 7 6 7 5 15 16 17 17 13 14 15 15 15 14 15 17
6 5 5 5 4 6 11 11 14 13 12 12 12 11 11 11 11 13 13 12 13 12 11 11 13 13 13 13 15 15 15 15 17 17 18 16 15 14 15 15 16 17 17 17 16 16 15 16 15 15 14 14 14 15 16 17 17 17 18 18 17 17 16 15 13 11 10 10 8 5 5 4 4 6 16 16 16 13 14 15 16 16 15 14 14
8 5 5 5 4 5 9 11 14 13 13 13 13 12 12 12 12 12 12 12 13 13 12 11 12 13 13 13 14 14 15 16 16 17 17 17 17 16 16 16 15 15 16 17 16 15 16 15 15 14 14 14 14 15 16 17 17 17 17 16 16 15 15 13 12 10 10 6 4 3 3 4 4 4 16 16 15 14 14 15 14 14 16 14 13
5 5 5 5 4 6 9 11 12 13 13 13 13 12 12 12 12 13 13 13 13 13 14 13 12 13 13 12 13 15 16 17 16 17 16 16 17 17 16 15 16 16 15 15 16 15 15 14 14 14 14 13 14 14 15 15 16 16 16 15 15 14 13 12 11 10 9 5 4 4 5 4 3 3 14 15 15 15 14 15 14 13 15 14 9
5 5 5 5 4 8 9 10 13 13 13 12 13 12 12 12 12 13 13 13 13 11 12 14 13 13 14 13 13 14 14 15 16 17 17 16 16 16 14 14 15 15 15 15 15 16 15 15 14 14 13 13 13 13 14 15 15 14 15 15 14 13 12 12 10 9 6 5 5 5 5 4 3 4 12 14 14 13 12 10 9 10 12 9 10
4 4 4 4 4 7 9 10 12 13 13 12 13 12 13 12 11 12 12 13 13 14 13 12 12 12 14 14 14 14 14 15 15 16 17 16 17 16 16 15 15 15 15 15 15 15 15 14 13 13 13 12 12 13 14 14 14 13 13 13 13 12 11 11 10 6 4 4 5 5 6 9 4 2 11 14 13 11 8 8 6 6 5 7 10
5 4 4 5 5 6 8 10 10 11 13 13 13 11 13 12 11 11 11 11 11 12 12 12 12 13 13 13 13 14 14 15 15 15 16 16 16 15 14 14 14 14 14 15 15 14 14 13 13 12 12 12 12 13 13 13 13 13 12 12 12 11 11 10 7 4 4 5 5 5 7 11 7 2 11 12 12 12 6 6 7 8 9 10 10
6 4 4 4 8 7 7 8 9 12 12 12 12 11 11 11 12 11 11 13 12 11 12 12 12 12 12 13 13 13 14 14 14 14 15 15 16 14 14 13 14 14 14 14 14 14 13 13 12 12 11 11 11 11 12 12 13 13 12 12 11 11 9 8 5 5 4 4 5 4 6 6 6 7 11 11 11 10 9 10 9 9 10 11 9
7 5 4 4 4 5 6 8 8 10 11 12 11 11 11 11 12 11 10 12 13 12 12 12 11 11 12 13 12 13 13 13 14 14 14 15 15 15 14 14 13 13 13 13 13 13 12 12 11 11 10 10 10 10 11 11 12 12 12 12 11 10 8 7 4 5 4 4 4 4 5 5 6 11 9 10 10 9 8 9 9 9 9 9 9
9 6 5 4 4 6 7 8 7 8 10 10 11 11 10 12 11 11 10 12 12 12 12 12 11 12 12 12 13 14 13 14 14 14 14 14 15 14 14 13 13 12 12 13 12 12 11 11 11 10 9 9 9 10 10 10 11 11 11 11 11 11 8 6 4 4 4 4 4 4 4 4 3 9 10 8 9 8 7 6 8 10 11 10 11
10 7 5 4 4 4 8 8 7 8 8 9 8 8 10 11 11 11 10 12 12 12 12 11 11 12 12 11 12 12 14 14 13 14 13 13 14 13 13 13 12 12 12 11 11 11 10 10 10 9 8 8 9 9 9 9 10 10 11 10 9 9 9 4 3 3 3 3 3 3 4 3 6 9 9 9 8 8 6 10 10 11 10 9 10
11 8 6 4 4 5 6 7 8 8 8 7 6 7 10 9 8 9 11 13 12 11 11 11 11 10 11 12 10 11 11 11 12 11 10 11 12 12 12 12 12 11 11 11 10 9 9 9 9 8 8 8 8 9 9 9 9 9 8 8 7 9 8 5 3 2 2 2 2 2 3 4 9 8 8 8 8 7 8 8 9 9 9 10 10
9 9 7 5 6 5 6 6 6 9 8 8 7 8 9 9 8 8 6 7 10 11 10 9 10 10 10 10 10 11 11 11 10 9 8 10 11 11 10 11 11 11 11 10 9 9 9 9 8 7 7 7 7 7 7 7 7 6 6 6 7 7 7 4 3 1 1 2 2 3 3 3 7 8 8 8 7 8 8 8 9 9 9 9 9
9 9 8 6 6 6 6 6 6 5 5 7 9 10 9 9 8 7 8 7 8 9 7 9 10 11 10 9 8 10 10 10 9 9 11 10 8 8 9 11 10 10 9 9 8 8 8 8 7 7 6 6 6 5 5 5 6 6 6 7 7 7 6 5 2 2 1 2 3 1 3 5 8 7 7 7 7 8 7 8 8 8 10 9 9
9 9 9 7 6 6 6 6 5 5 5 5 5 8 9 8 8 8 8 9 9 10 12 11 9 9 9 8 8 9 10 10 10 11 10 9 8 8 8 9 9 9 8 7 7 7 7 6 6 6 5 5 4 4 5 6 6 7 7 7 8 8 7 3 2 1 1 1 1 2 3 5 5 7 6 8 8 7 8 8 8 9 9 9 9
8 8 8 6 5 6 5 5 6 5 4 5 5 5 7 8 8 9 10 10 10 10 11 11 10 9 9 9 9 7 8 8 9 7 9 9 8 6 7 7 8 7 7 6 6 5 5 5 5 4 4 3 4 4 5 5 6 7 7 7 6 6 3 1 2 1 0 0 0 1 3 5 6 6 6 7 7 6 8 7 8 9 8 9 9
6 9 8 6 5 6 5 5 4 5 5 4 5 5 6 8 7 9 10 10 10 10 10 11 9 9 8 8 8 6 5 5 6 5 6 4 6 7 6 6 7 7 6 5 4 3 3 3 4 3 2 2 3 4 4 5 5 6 6 6 7 4 2 1 2 2 1 0 1 1 3 5 6 7 6 6 6 6 7 8 8 8 9 9 9
7 8 8 7 6 5 6 5 4 4 5 5 4 5 5 6 5 4 5 7 8 8 8 6 6 5 8 6 4 4 4 4 4 6 4 4 4 6 7 6 6 5 5 4 3 1 1 2 1 2 1 2 5 2 3 4 4 5 6 6 5 3 3 1 2 3 1 1 1 3 3 4 5 6 6 5 5 6 7 7 7 10 9 9 11
7 6 6 8 6 5 4 5 5 5 5 4 4 5 5 5 5 5 4 6 6 6 5 5 4 4 4 3 4 4 4 4 4 4 4 4 4 5 5 6 6 5 4 3 1 1 2 3 2 1 2 3 2 2 2 4 4 5 5 3 2 3 2 0 1 1 2 0 1 4 4 5 5 5 4 4 4 6 6 5 7 10 9 11 12
9 9 8 7 7 7 6 5 5 5 5 5 4 5 5 5 4 5 4 4 5 4 4 4 4 4 3 3 3 3 3 3 5 9 8 4 3 3 3 4 4 4 3 1 2 4 5 5 4 3 2 1 2 3 3 3 3 3 2 2 2 3 1 2 1 3 3 0 0 3 3 4 4 3 3 3 5 4 5 5 8 9 10 11 12
6 7 8 9 9 9 7 6 5 5 5 5 5 5 4 5 5 4 4 4 4 4 5 5 4 4 4 4 3 3 3 3 3 3 3 3 3 2 2 2 2 2 2 2 2 2 2 3 3 2 1 2 2 4 3 3 3 2 2 1 2 1 3 2 4 4 2 1 0 2 3 3 3 3 3 4 5 5 5 6 9 9 10 11 12
3 8 9 9 10 9 9 7 6 6 6 6 6 6 6 4 4 4 4 4 5 5 5 5 5 4 5 5 4 4 4 3 3 3 3 3 4 3 3 2 3 2 3 2 2 2 3 3 3 3 3 2 3 3 3 4 4 4 1 2 2 0 1 3 4 2 2 1 0 1 2 3 2 4 4 4 5 5 5 6 8 10 10 10 11
6 6 7 6 8 8 9 7 8 7 7 7 6 6 6 6 6 5 5 5 5 5 5 5 5 4 5 5 6 5 5 5 5 4 4 3 4 3 3 3 3 3 3 4 4 3 3 4 3 4 3 3 3 3 3 4 2 1 2 3 3 3 0 2 5 4 1 1 1 2 3 6 6 4 4 4 4 4 4 6 7 9 8 10 11
5 5 6 6 7 10 9 9 8 9 8 7 7 6 6 6 6 6 6 7 6 6 6 6 5 5 5 6 6 6 6 6 5 5 5 4 5 5 4 4 4 4 3 4 4 4 4 4 3 4 4 3 4 3 3 3 4 3 4 4 3 3 4 1 4 4 3 2 1 2 4 5 5 5 4 3 3 3 3 5 7 8 10 11 11
8 8 7 7 8 9 9 10 10 11 9 8 8 7 7 7 6 6 7 6 6 6 7 6 6 6 5 6 6 6 6 6 6 6 5 6 5 5 5 5 5 5 4 4 4 5 5 5 5 5 4 5 3 3 3 3 3 3 3 4 3 3 4 3 3 4 3 2 2 1 4 5 5 5 4 2 2 2 3 6 8 9 10 11 10
11 11 9 10 8 7 10 11 11 11 10 9 8 8 7 8 7 8 8 6 7 7 6 6 7 6 6 6 7 8 8 7 7 6 7 6 6 5 5 5 5 5 5 5 5 5 5 4 4 4 4 4 4 6 3 4 4 3 4 3 3 4 3 3 4 5 4 3 2 1 4 5 5 5 4 1 2 4 6 8 9 10 10 10 10
11 10 10 9 9 9 9 9 9 9 8 9 8 9 8 8 8 8 7 8 8 7 7 7 7 6 7 7 7 8 8 7 7 7 6 6 6 6 6 5 5 6 5 6 5 5 5 5 5 5 6 5 6 4 4 4 4 4 3 2 4 2 2 4 5 5 4 4 3 2 3 6 5 4 3 2 3 5 9 10 9 10 10 10 10
11 12 11 10 10 12 12 10 10 9 10 9 8 8 9 8 8 8 8 8 8 7 7 7 7 7 7 7 7 7 7 7 7 7 7 7 6 6 6 6 6 5 6 6 6 5 5 5 4 4 5 4 4 3 3 3 4 4 3 4 3 4 3 4 5 5 5 4 3 3 3 4 5 5 2 0 4 6 9 9 10 9 9 9 10
9 11 11 9 12 11 11 10 10 9 11 10 9 8 7 7 7 8 8 8 8 8 8 8 7 7 7 7 7 7 7 7 7 8 7 7 7 6 6 6 6 6 5 5 5 4 3 5 5 3 3 3 2 4 2 2 3 5 3 4 2 4 4 4 5 6 6 5 4 4 4 4 3 5 4 5 5 6 9 9 9 8 8 9 9
9 7 7 10 9 7 8 7 9 10 11 9 8 7 7 7 7 7 8 8 7 7 7 7 7 7 7 7 8 8 7 7 7 7 6 6 6 6 6 6 6 5 5 5 6 6 6 5 6 3 5 4 5 5 3 4 4 4 4 4 3 4 4 4 5 6 7 6 5 4 5 4 3 3 2 5 7 3 10 10 9 9 8 9 9
8 8 11 12 11 10 8 8 9 10 10 10 9 9 7 7 7 6 7 7 7 7 6 6 6 7 7 7 8 8 8 7 6 7 6 6 6 6 6 7 6 5 6 6 6 6 6 6 5 5 4 4 4 4 3 4 5 6 5 3 5 3 3 6 4 6 6 6 5 4 4 5 4 3 3 3 5 6 9 9 9 9 9 9 9
12 11 10 9 11 10 10 10 10 11 11 11 10 9 8 8 7 6 6 6 6 7 7 7 6 6 7 7 7 7 7 7 6 5 6 6 6 7 7 6 6 6 6 6 5 6 6 6 5 5 5 5 4 5 4 5 5 6 5 4 5 4 5 4 5 5 5 6 6 5 4 5 4 4 3 4 4 7 10 8 10 9 9 9 9
11 10 11 10 10 10 11 11 12 13 11 11 10 8 7 7 7 7 7 6 7 7 7 7 6 6 6 7 7 7 7 6 6 5 6 7 6 7 7 7 6 6 6 6 6 6 6 6 6 6 5 6 5 6 5 5 5 6 6 4 5 5 5 6 6 5 5 6 6 5 4 4 4 5 4 5 5 5 8 9 9 9 9 10 10
10 11 11 12 12 11 10 11 10 11 10 10 9 9 8 7 6 6 6 7 8 7 7 6 7 7 6 7 7 7 7 7 7 6 6 6 7 7 7 7 6 6 6 6 7 6 6 6 7 6 6 5 5 6 6 5 5 5 4 4 5 3 5 5 5 5 6 6 6 6 6 5 5 5 5 5 4 6 4 7 8 8 9 10 11
9 10 10 10 9 10 9 10 10 10 10 9 8 7 6 5 4 5 6 7 6 6 6 6 7 7 7 8 7 7 8 8 8 7 7 7 7 7 7 7 6 7 7 7 7 7 7 6 7 6 4 6 6 7 7 6 4 3 3 4 2 3 3 3 5 5 5 7 7 6 5 5 5 4 5 5 5 4 4 3 4 4 5 11 11
11 11 11 10 11 10 9 9 10 10 9 8 7 7 7 8 8 6 7 7 7 7 7 7 7 8 8 8 8 8 8 8 9 8 8 8 7 7 8 7 7 7 7 8 8 8 9 8 7 6 5 4 4 4 3 4 1 2 3 4 2 3 2 3 4 6 6 5 5 5 6 5 5 5 5 5 5 4 4 3 4 4 4 6 10
12 12 12 13 13 13 11 12 10 9 10 9 9 10 10 8 8 10 11 9 9 9 9 8 8 9 9 9 9 9 9 9 9 9 9 9 8 7 8 7 7 7 8 9 10 9 9 8 7 6 7 6 6 4 3 4 4 2 3 3 5 3 3 3 4 3 5 5 4 6 5 6 5 6 5 5 4 4 4 4 4 4 5 3 5
12 12 15 15 12 12 13 12 10 11 12 12 11 11 11 11 11 11 10 9 9 9 10 9 10 8 9 9 9 9 9 9 9 9 9 9 9 8 8 9 8 8 8 8 7 7 7 6 5 4 4 7 6 5 5 5 1 4 3 3 2 2 1 2 3 3 2 3 5 5 5 6 6 6 4 5 4 4 4 4 4 4 3 3 3
13 14 14 12 12 12 12 12 11 12 11 12 11 12 10 10 10 8 9 7 6 7 7 6 6 7 9 9 9 8 9 9 9 9 9 9 10 9 9 8 8 8 7 8 7 8 8 9 8 8 5 3 4 3 5 7 5 1 1 1 3 1 2 1 1 1 1 2 3 5 5 5 7 6 6 5 5 4 4 3 4 4 3 3 3
11 11 12 14 12 12 12 13 12 12 11 12 12 11 10 8 7 5 5 7 6 5 5 5 5 7 10 9 9 10 9 10 10 10 9 9 9 10 8 7 8 7 9 9 9 10 8 8 8 8 6 5 3 5 5 6 5 5 2 4 2 1 3 5 3 1 2 2 3 5 4 5 5 4 5 6 5 5 4 3 4 4 3 3 3
13 13 14 14 12 15 14 14 12 12 11 11 12 9 7 5 5 2 1 3 1 4 6 8 9 9 8 9 12 9 10 10 10 11 10 10 9 9 8 9 9 8 8 9 10 10 9 9 9 8 8 8 6 4 4 5 5 6 6 2 2 1 4 2 2 4 1 2 3 2 4 4 5 6 6 4 4 5 5 4 3 3 3 3 3
14 14 14 15 13 12 12 12 11 10 12 12 12 10 9 10 8 8 8 8 9 9 12 14 11 11 13 9 7 9 10 9 9 10 10 9 10 10 9 9 9 9 9 9 9 7 8 8 8 9 9 8 7 4 4 3 5 6 5 4 6 4 2 2 2 4 2 0 1 1 2 3 4 5 4 4 5 4 5 6 4 4 3 3 3
15 13 12 12 13 12 12 13 12 11 11 11 11 10 9 9 12 13 12 12 12 11 10 8 8 9 7 8 8 7 9 10 9 9 9 10 10 10 10 10 10 9 8 8 9 9 8 7 6 7 9 8 5 6 7 6 3 5 5 5 2 1 4 5 5 2 1 1 0 1 2 1 2 4 4 4 5 5 4 5 5 5 4 3 3
16 11 11 11 14 15 13 13 11 11 10 10 11 12 12 11 12 12 11 12 13 14 9 9 6 5 7 9 7 8 8 9 9 9 10 10 10 10 10 9 9 9 8 8 9 8 6 5 7 8 7 7 9 10 8 6 9 6 6 7 6 3 2 2 4 6 4 3 3 0 0 1 1 3 3 4 5 6 5 4 5 4 5 4 3
12 11 13 14 13 11 11 10 12 11 10 11 12 13 13 12 12 10 12 12 12 11 5 4 5 4 7 6 8 8 8 8 9 9 9 9 9 10 9 9 9 9 7 8 7 7 9 8 8 7 8 8 8 9 8 9 8 8 5 6 7 8 5 5 3 3 3 3 3 5 3 1 1 3 4 4 5 5 6 6 5 5 5 5 4
12 12 11 9 9 9 11 11 13 11 10 11 13 14 13 11 11 13 15 13 10 8 5 7 6 5 8 7 6 7 8 8 8 8 8 8 8 9 9 11 10 9 8 9 8 9 9 9 9 9 9 10 8 9 10 9 9 9 9 8 7 5 4 4 3 4 1 3 6 5 6 7 6 7 6 7 7 6 6 6 6 5 5 5 5
6 6 7 8 8 9 10 12 14 11 10 12 13 14 13 12 13 14 15 15 12 9 8 10 7 6 9 8 7 7 6 8 6 8 8 7 8 7 8 9 9 8 8 8 9 9 9 9 9 9 10 11 9 10 9 9 8 9 9 8 9 9 9 9 8 7 7 3 2 4 5 9 12 8 8 7 6 6 6 6 7 6 6 5 5
Wind_Direction
221 166 199 169 148 136 128 126 117 109 101 99 99 96 99 93 96 111 110 108 108 103 99 97 97 96 95 97 95 95 95 95 95 95 95 95 94 91 89 87 85 85 85 84 79 80 80 74 75 75 77 81 82 80 75 73 73 75 80 80 79 76 73 69 66 62 64 59 67 69 65 67 65 65 63 65 64 57 58 69 62 54 50 52 57
178 201 181 160 146 137 132 129 120 114 111 106 102 103 102 105 95 88 107 111 112 105 101 100 97 94 94 94 99 100 100 100 100 98 97 94 91 89 87 85 82 80 79 79 80 77 76 76 75 77 80 84 82 78 76 73 69 74 85 89 86 80 78 73 69 70 71 63 53 50 61 65 63 62 63 63 65 59 58 62 55 50 49 58 57
140 165 180 149 144 140 133 132 125 119 117 115 116 110 103 106 101 98 97 110 108 104 100 100 100 100 104 103 98 99 103 105 104 101 98 93 90 89 91 91 90 87 85 83 80 77 80 82 79 79 85 83 76 68 62 59 63 70 86 91 87 83 79 75 72 71 62 50 45 39 27 67 67 69 69 69 64 56 52 56 54 50 50 53 52
131 156 136 137 139 140 138 134 121 120 118 114 110 105 109 115 116 111 106 109 114 117 113 108 106 109 106 105 109 108 109 110 104 100 97 97 95 93 91 88 87 84 82 81 82 84 80 78 80 80 81 79 72 63 56 54 59 72 85 94 91 85 82 80 74 64 54 47 41 34 39 19 68 68 66 64 62 57 57 55 55 55 47 48 52
130 139 129 129 140 145 141 130 125 123 119 113 117 118 117 117 115 119 115 108 106 109 116 118 112 106 105 110 107 106 108 104 103 103 101 97 98 98 96 95 96 94 90 88 87 85 85 83 82 86 83 75 68 62 58 55 57 67 82 95 95 90 87 83 77 69 62 54 46 39 32 40 33 60 59 59 61 59 57 61 64 63 54 51 59
139 135 126 131 141 146 141 138 129 125 120 119 116 115 113 111 111 105 109 116 117 110 112 120 116 111 114 113 109 114 113 109 108 107 105 102 101 98 96 92 90 92 94 93 90 87 84 83 81 83 82 76 69 62 58 57 62 72 85 93 97 92 90 87 82 74 63 57 52 51 44 44 47 59 65 61 61 58 60 57 61 61 59 55 54
136 134 131 136 144 155 149 139 130 127 127 124 120 120 122 120 114 112 114 114 109 110 112 116 117 115 115 111 107 110 115 111 107 106 103 104 103 100 96 98 96 92 88 83 83 84 84 84 84 85 83 77 69 62 59 60 65 74 83 86 89 92 89 85 78 68 59 47 39 31 29 32 30 48 60 61 59 59 54 56 65 60 63 60 51
126 132 133 137 147 162 143 127 126 130 129 125 124 123 120 120 124 123 121 117 116 121 129 124 119 114 111 113 114 107 108 107 106 101 100 102 103 99 96 93 93 91 90 93 91 89 87 84 85 87 84 76 68 65 65 66 67 72 77 82 87 89 86 82 75 66 57 47 38 28 15 357 7 43 60 59 63 59 58 51 59 61 65 73 69
133 137 132 136 154 160 140 132 133 134 133 131 128 127 127 126 122 122 121 118 117 122 123 122 122 121 120 116 114 109 107 107 106 105 103 102 99 99 99 95 91 93 93 92 93 92 90 90 88 89 84 75 68 65 66 66 66 69 74 80 84 85 84 78 72 64 52 47 35 28 28 18 339 50 63 64 67 67 67 56 35 38 70 75 74
135 131 134 135 154 158 141 138 136 137 134 129 125 133 131 126 126 125 121 122 127 124 124 123 124 121 116 116 110 107 106 108 107 107 106 100 98 97 99 100 100 102 98 94 96 94 93 90 89 87 83 74 67 63 61 62 63 63 66 71 78 79 81 77 72 65 59 49 40 25 19 20 356 359 65 67 69 72 89 84 67 48 54 69 46
138 141 137 139 155 160 148 139 137 135 131 129 132 135 129 125 124 125 126 122 121 120 104 104 109 112 116 116 114 106 108 107 108 107 102 101 99 98 96 97 96 94 98 99 96 93 92 89 88 86 80 72 65 61 58 56 57 57 57 61 68 70 70 68 61 56 54 48 42 26 15 14 13 312 68 69 72 69 91 90 68 71 64 51 48
140 143 145 145 155 160 151 140 142 135 134 134 133 127 124 133 133 132 133 132 130 115 112 114 117 114 113 114 112 111 110 109 111 106 103 104 103 103 104 104 105 100 97 100 98 96 92 89 88 84 79 71 67 63 61 59 54 52 52 51 53 59 66 72 69 60 49 44 37 28 26 15 1 34 53 65 70 61 66 71 66 55 44 40 38
144 145 149 146 149 163 142 143 138 137 136 134 133 133 137 134 129 129 132 128 123 123 120 120 119 123 122 118 117 116 113 112 111 109 110 108 107 107 107 107 107 109 105 100 101 99 94 90 88 86 81 76 71 66 64 61 58 56 52 50 45 44 50 57 70 61 47 37 28 17 24 16 6 31 37 61 70 65 55 50 40 35 35 30 27
148 145 148 143 154 150 137 132 137 136 132 132 136 141 137 127 136 136 137 122 124 123 123 123 123 126 125 122 120 115 116 114 112 110 111 109 109 111 113 113 110 110 110 108 104 103 99 95 91 87 82 76 72 68 64 60 59 54 48 44 41 45 44 45 54 65 53 38 28 19 21 2 5 39 38 49 55 64 59 50 39 34 23 13 9
149 148 145 141 147 143 131 127 128 127 130 137 146 142 136 137 139 137 131 120 128 129 129 127 131 132 128 126 106 116 117 115 117 118 117 113 111 112 114 112 113 111 109 106 106 100 98 96 91 83 75 71 66 61 59 56 53 48 41 35 35 46 49 50 40 51 62 47 24 25 11 342 10 42 41 37 37 55 51 38 32 27 17 17 15
146 146 143 136 138 141 124 120 115 117 121 129 132 136 138 137 136 132 137 131 129 129 126 129 131 135 136 116 100 111 115 116 118 114 113 118 118 120 125 122 119 116 112 112 109 107 104 101 95 87 78 68 60 57 50 47 45 40 37 32 27 40 49 72 74 60 76 67 31 33 2 350 350 31 45 37 35 29 31 27 29 30 23 19 20
144 143 139 141 141 135 128 123 119 113 119 126 124 131 134 137 137 128 115 120 129 131 131 139 126 127 120 119 112 106 102 96 109 118 124 128 126 123 123 124 122 121 118 116 112 108 105 102 99 96 89 82 72 56 48 41 34 29 26 31 28 41 49 67 100 90 69 67 52 20 1 343 351 7 27 39 36 36 25 19 21 23 18 30 22
143 143 144 149 142 139 133 132 127 121 123 125 130 131 134 137 137 130 129 122 123 129 131 117 111 109 106 108 104 100 96 98 98 95 99 101 96 110 116 118 119 115 118 113 111 108 107 105 104 97 88 78 68 56 39 25 18 11 13 17 13 22 47 45 55 44 29 55 30 5 354 351 358 359 10 33 29 35 25 19 20 12 22 31 29
143 147 148 155 151 144 147 146 134 135 134 134 138 139 139 142 135 125 122 117 117 118 117 116 117 116 111 108 100 97 97 98 100 101 95 94 94 98 111 117 119 122 121 117 113 112 110 108 103 99 87 72 52 41 22 9 360 358 360 2 6 359 59 34 92 86 356 29 21 14 342 343 355 5 15 26 26 28 31 20 13 20 22 28 37
149 151 154 161 154 152 154 150 147 146 146 144 144 143 144 144 135 128 128 125 125 125 125 126 125 120 120 113 106 97 92 90 93 92 104 108 109 110 110 118 125 125 126 124 119 120 119 113 107 98 86 56 28 3 359 355 358 352 347 349 353 358 40 359 115 148 195 291 25 338 341 352 358 7 10 24 30 27 28 22 14 26 22 41 54
154 158 160 163 161 159 159 150 162 156 143 142 144 143 152 145 138 135 134 132 132 132 129 129 130 130 125 123 115 110 108 103 91 95 91 97 117 116 117 126 132 123 122 119 121 120 125 120 116 105 81 40 11 350 344 349 353 331 326 331 338 337 347 57 152 177 175 310 353 325 355 353 349 358 351 22 19 27 33 18 19 28 40 57 66
160 160 165 164 164 173 167 159 159 165 146 143 145 152 146 145 139 137 135 135 133 130 131 138 141 144 140 136 129 131 123 120 121 119 103 108 96 108 105 95 98 111 122 121 117 153 187 157 156 143 122 25 349 341 346 324 311 301 298 318 323 319 335 27 156 161 143 13 340 326 340 355 349 346 341 18 14 36 34 27 29 49 62 75 74
164 165 170 170 172 169 176 165 168 167 154 147 153 156 159 132 141 144 143 143 146 144 148 147 150 152 157 141 139 138 138 137 138 140 132 104 92 88 98 107 105 107 119 118 121 214 252 256 229 295 58 355 319 300 312 291 293 288 298 304 293 313 302 147 159 134 127 269 334 335 350 356 346 341 343 13 37 42 38 47 60 68 76 76 76
172 171 169 173 172 176 181 179 173 170 158 156 152 162 163 163 150 151 153 150 151 156 157 157 159 164 150 143 143 148 140 127 139 137 132 130 107 82 77 87 90 92 106 128 276 304 308 311 317 322 344 276 256 276 285 281 291 296 323 287 303 286 44 18 169 127 137 199 327 354 355 351 352 340 5 43 57 56 45 61 76 87 81 79 80
180 165 168 178 180 179 180 180 178 172 165 158 155 168 167 165 169 162 158 156 162 166 171 172 172 170 160 163 153 142 146 148 149 155 157 152 158 163 163 169 173 181 184 209 239 262 288 299 310 333 224 255 252 265 258 266 271 281 239 258 220 249 19 337 79 118 145 153 330 11 348 338 349 4 50 67 82 66 63 69 85 93 87 84 81
160 175 185 179 180 181 179 177 172 179 174 166 172 172 166 169 173 174 165 170 169 178 186 191 183 176 169 174 149 150 160 171 165 169 174 172 166 181 190 190 196 204 196 219 226 232 246 251 256 279 274 221 253 253 224 234 216 221 276 277 256 313 359 344 88 121 137 131 23 58 343 321 348 43 53 73 78 72 70 80 97 94 95 91 85
191 193 183 188 180 179 181 170 174 180 181 177 173 165 178 179 176 177 172 186 183 180 196 205 197 183 177 177 162 172 176 186 186 182 188 188 182 191 192 198 197 202 201 199 217 221 224 244 250 250 261 282 277 271 262 267 284 319 309 287 264 226 139 253 106 131 148 127 113 81 47 47 25 42 48 54 69 73 71 88 101 96 100 91 90
180 191 183 186 186 184 180 173 175 177 184 181 175 179 184 178 182 179 190 184 180 192 197 206 201 194 188 186 183 176 178 186 196 188 195 190 191 194 191 198 205 206 192 197 207 222 228 239 250 262 266 262 256 271 272 283 288 281 278 283 259 222 260 109 117 128 139 149 127 119 90 58 37 36 28 30 54 86 93 94 102 103 101 99 95
192 195 189 186 197 182 174 177 174 179 181 178 181 186 184 184 180 185 194 190 188 194 199 204 205 204 195 187 181 179 184 186 190 197 182 197 199 192 192 208 205 213 184 211 206 215 226 224 228 236 239 248 242 259 251 268 266 269 245 257 254 247 256 102 144 136 142 150 141 94 83 69 58 54 34 24 74 104 125 116 107 112 105 102 99
202 196 189 196 189 185 178 179 175 178 179 177 183 185 187 185 189 190 196 188 199 196 198 202 212 192 201 189 185 179 183 188 193 194 181 202 203 202 201 211 207 213 190 209 210 205 218 217 228 242 240 241 239 243 229 243 251 246 221 237 247 213 218 133 154 148 151 134 138 104 64 69 68 67 58 70 139 152 134 121 120 113 110 107 103
198 198 199 200 189 185 193 184 178 173 172 182 182 188 183 188 192 192 191 194 201 195 194 202 209 198 198 188 189 182 184 191 190 188 195 194 199 201 211 207 209 214 201 214 203 203 209 212 214 221 220 221 232 238 202 223 244 265 253 231 245 238 230 176 142 137 137 152 144 126 77 68 70 72 86 108 159 164 135 130 125 118 118 113 109
194 201 200 196 188 193 194 190 183 177 176 186 182 188 188 188 189 189 194 195 195 196 193 199 205 203 197 194 191 188 187 194 191 193 193 194 196 198 204 196 208 203 200 208 207 213 210 220 219 215 219 208 220 217 221 214 254 264 277 263 238 217 197 170 150 144 146 151 154 136 104 86 76 75 45 94 171 158 134 130 124 124 120 119 111
210 203 199 189 194 195 192 194 186 184 187 189 188 193 190 185 181 191 192 191 194 189 194 201 206 207 200 197 200 195 191 192 200 197 198 198 198 198 201 208 209 200 199 210 213 214 219 240 240 219 218 223 252 269 207 207 250 267 266 265 233 213 189 171 157 143 153 158 157 147 123 113 103 84 53 351 321 150 136 116 125 115 118 117 108
198 202 194 200 197 194 194 189 191 190 196 194 192 194 195 192 193 191 191 191 199 193 197 198 204 208 208 203 201 201 198 201 194 205 199 200 201 201 203 213 216 207 199 204 212 210 209 209 224 191 221 214 233 245 265 286 276 280 274 263 236 205 174 177 176 165 155 160 158 151 136 126 121 110 61 9 356 71 114 112 117 104 103 103 102
189 196 198 199 193 193 187 192 189 196 195 197 195 200 200 197 195 195 196 195 200 203 204 200 201 207 209 212 205 203 204 202 200 197 202 202 202 205 207 215 208 201 199 204 204 214 208 212 202 200 227 238 245 266 250 246 260 275 262 237 231 201 175 188 172 155 159 156 153 153 146 138 139 120 86 46 21 56 101 120 111 105 101 100 99
195 196 198 196 200 196 190 191 188 195 198 199 198 201 200 203 201 199 198 203 203 208 210 207 205 205 206 214 212 210 208 206 201 196 198 203 205 205 211 213 209 197 205 206 204 211 213 219 218 196 212 244 245 264 243 250 257 263 258 225 230 176 186 195 175 158 157 150 157 156 152 147 145 137 115 79 66 63 65 84 101 94 90 87 88
195 193 194 194 201 199 193 192 190 196 198 200 200 201 198 200 204 203 203 200 208 212 214 211 210 208 205 214 213 212 215 210 202 198 199 204 210 210 213 211 205 199 205 208 207 212 201 210 223 215 196 215 217 239 255 240 249 246 250 234 221 176 191 189 185 164 142 157 160 156 151 157 151 142 122 101 89 79 75 70 65 61 64 78 80
199 197 195 192 196 196 196 198 194 195 196 198 199 201 203 201 204 208 203 205 213 216 216 210 215 213 205 212 208 208 211 214 206 198 204 210 209 210 212 211 202 202 208 208 214 209 209 200 218 218 201 202 218 223 237 231 232 235 235 223 222 184 216 191 188 155 154 158 164 167 170 159 150 148 131 119 110 96 85 79 71 61 62 71 75
201 198 196 196 194 196 196 201 194 193 196 194 194 199 203 211 212 210 213 216 220 223 218 218 219 218 216 214 206 203 207 211 211 200 202 208 210 211 211 210 201 203 205 210 215 212 212 213 212 224 212 209 209 213 212 199 213 223 232 239 264 246 235 228 167 161 167 169 169 168 150 164 149 147 143 136 128 118 108 98 89 74 64 68 67
202 195 195 195 196 195 196 198 197 190 189 189 181 191 194 200 205 214 224 219 218 218 219 217 213 218 219 217 213 208 206 207 209 206 204 207 209 211 209 206 201 197 203 205 213 207 208 211 222 216 219 238 240 231 192 164 186 229 266 288 292 281 244 220 195 175 173 169 162 150 165 162 148 152 155 153 140 138 129 120 100 90 77 71 68
201 198 194 199 197 194 188 200 194 186 185 187 188 189 193 201 210 211 214 209 211 212 217 216 215 218 215 216 216 214 211 209 211 208 209 209 214 215 214 213 202 201 204 211 208 209 209 205 210 206 213 228 245 219 217 164 156 277 328 306 314 297 261 206 238 191 171 170 149 155 151 153 160 156 172 156 149 146 146 131 117 100 86 76 61
207 199 202 201 198 194 196 198 188 192 195 192 190 194 198 198 196 206 206 206 206 209 218 215 217 218 217 216 216 216 215 213 213 214 214 211 213 215 216 217 208 210 214 217 215 212 208 209 198 222 222 211 228 198 196 134 212 210 240 293 312 322 319 242 230 231 164 158 166 155 161 164 168 170 159 158 161 156 155 147 125 114 111 101 88
199 202 206 198 198 199 202 195 194 193 198 196 192 200 201 203 200 204 201 213 221 221 228 225 219 221 222 220 217 215 214 215 213 215 216 216 217 216 219 217 215 210 214 223 218 218 210 207 199 202 220 247 236 220 184 190 199 137 116 69 293 279 314 309 325 217 171 198 164 163 169 167 172 170 165 164 170 169 163 152 137 127 138 118 106
203 205 204 203 200 203 202 198 197 197 197 200 201 204 201 203 208 196 200 201 199 208 221 234 223 221 227 219 221 215 210 214 212 211 216 217 215 218 218 218 220 210 213 219 218 222 211 212 206 209 191 215 216 238 205 204 159 127 267 214 235 121 309 255 203 248 137 205 208 182 169 173 162 147 151 174 182 172 169 159 149 144 151 140 126
204 205 203 203 203 203 202 198 197 198 200 198 200 196 187 189 191 174 148 206 230 190 205 229 223 220 223 218 222 211 212 214 211 212 212 217 215 216 216 217 218 216 212 221 222 220 214 211 205 202 200 210 221 221 225 208 211 195 153 84 8 356 228 260 159 260 98 188 251 224 194 161 165 169 170 178 167 172 161 165 155 144 157 143 125
208 210 204 205 203 204 199 199 201 199 201 199 195 188 191 191 183 195 208 211 219 209 213 217 213 215 219 221 219 210 214 216 213 213 214 214 216 214 215 216 218 218 214 222 227 222 217 212 208 204 209 211 206 193 237 236 219 227 210 182 158 180 203 256 128 261 19 186 325 329 272 217 170 170 174 163 171 169 163 164 159 158 163 140 134
213 208 203 205 205 205 201 198 200 202 201 197 186 187 193 197 199 204 209 212 221 228 225 225 220 224 223 221 221 214 215 216 217 213 214 213 217 217 215 217 220 220 218 222 227 224 219 215 202 204 212 203 187 210 208 210 213 250 239 245 250 116 144 127 208 71 287 287 59 191 268 294 212 178 182 191 178 163 180 160 163 161 157 146 142
211 198 201 203 205 206 200 201 202 202 199 190 187 190 196 199 204 210 213 219 220 230 217 226 224 216 216 224 220 222 217 219 220 218 216 214 214 220 217 220 221 223 216 221 227 227 223 216 205 210 212 202 201 213 211 191 194 218 199 231 245 207 165 120 150 172 169 178 241 265 351 99 277 249 214 193 191 183 174 177 162 160 153 157 152
206 197 203 204 205 204 202 202 205 202 197 190 190 196 201 200 204 207 217 225 227 236 222 221 220 210 226 218 220 223 222 222 222 220 217 217 214 219 218 221 223 225 216 226 227 223 221 217 210 207 210 212 207 213 206 202 200 214 182 224 223 231 212 207 163 131 153 163 246 193 223 1 150 246 238 223 212 192 182 178 175 165 160 162 161
207 204 207 201 202 200 203 201 209 202 195 192 195 199 201 200 206 210 218 225 222 232 208 225 221 208 228 222 220 221 222 227 226 225 223 219 220 219 222 224 225 224 218 226 225 224 223 221 217 215 215 219 211 206 209 206 204 210 199 197 199 211 213 209 181 159 160 191 188 202 203 188 205 233 199 207 207 206 189 173 170 173 167 164 165
211 207 210 204 202 198 202 206 213 203 193 196 194 201 199 202 212 213 218 224 218 217 221 231 220 216 228 227 220 224 222 228 228 232 230 226 228 224 223 229 229 224 222 226 228 226 223 221 219 215 216 218 213 208 215 219 209 210 206 198 203 196 202 205 205 189 188 178 158 209 203 200 203 205 215 196 199 204 190 182 177 179 173 169 167